Find Starlink 32025

NORAD ID: 60138 Int'l Des: 2024-120 Owner: SPXS Country: US Constellation: starlink operational
LEOCIRCULAR

实时位置

正在加载3D地球...

关于 Starlink 32025

正在加载描述...

即将过境

Passes for default location (London). Set your location on the main map for personalized predictions.

高度历史

Loading altitude history...

两行轨道根数

1 60138U 24120D 26126.51869550 -.00003690 00000-0 -11267-3 0 9993
2 60138 53.1614 51.0559 0001255 107.3863 252.7275 15.30163502105233
Epoch: May 6, 2026 • Age: 14 hours

当前状态

高度 478.3 km
速度 7.63 km/s
星下点 39.17°N, 178.95°E
发射日期 Jun 27, 2024
运行时间 1.8 years
类型 internet

技术详情

分类 Payload
质量 730.00 kg
干质量 700.00 kg
总质量 730.00 kg
长度 0.30 m
直径 4.10 m
跨度 29.00 m
形状 Box + pan
制造商 SPXS
平台类型 Starlink V2M
阶段状态 In Orbit
所有者/国家 SPXS/US

Most Searched